Location: Akint? Adas?
(36.1354°N, 29.7511°E)
Time: 11:10:00
(UTC+00:00)

Daily predictions for brighter satellites

Satellite Brightness Start Highest point End
(mag) Time Altitude Azimuth Time Altitude Azimuth Time Altitude Azimuth
Cosmos 2278 4.1 16:48:15 10° SSW 16:53:52 74° WNW 16:59:33 10° NNE
Spot 4 Rocket 4.0 16:49:33 10° SSE 16:54:38 81° ENE 16:59:45 10° N
Aureole 1 Rocket 2.3 16:52:21 10° S 16:56:00 64° ESE 16:59:08 10° NNE
Cosmos 1328 4.3 16:53:09 10° NNE 16:56:18 30° E 16:59:26 10° SE
Cosmos 1862 Rocket 4.2 16:54:23 10° N 16:58:29 36° ENE 17:02:32 10° SSE
Cosmos 2360 Rocket 2.2 16:53:04 10° SSW 16:58:39 76° ESE 17:04:18 10° NNE
Cosmos 1707 Rocket 4.2 16:55:11 10° NNE 16:59:05 33° ENE 17:02:58 10° SE
Cosmos 1844 Rocket 2.7 16:56:06 10° NNW 17:01:40 68° ENE 17:07:11 10° SSE
CARTOSAT-1 4.1 16:59:13 10° S 17:03:22 62° W 17:07:31 10° NNW
Cosmos 2184 Rocket 4.3 16:57:28 10° SSE 17:03:29 46° E 17:09:30 10° NNE
Cosmos 1441 Rocket 4.1 17:01:16 10° NNE 17:04:02 23° ENE 17:06:46 10° SE
SL-19 R/B 4.1 17:01:19 10° SSE 17:06:29 71° ENE 17:11:46 10° N
Cosmos 2322 Rocket 2.3 17:00:55 10° SSW 17:06:32 84° WNW 17:12:10 10° NNE
Cosmos 2228 Rocket 3.9 17:04:34 10° NNE 17:08:33 31° ENE 17:12:29 10° SE
Helios 1A Rocket 3.5 17:06:53 10° NE 17:09:25 21° E 17:11:56 10° SSE
BREEZE-M DEB (TANK) 4.2 17:07:45 10° NNW 17:09:54 24° NNE 17:14:54 10° E
Lacrosse 4 Rocket 4.3 17:09:10 10° WNW 17:11:28 15° WSW 17:13:46 10° SW
Cosmos 1666 Rocket 3.4 17:09:38 10° S 17:13:53 79° E 17:18:11 10° N
SL-16 R/B 3.9 17:09:16 10° SW 17:14:31 38° WNW 17:19:48 10° N
Cosmos 1633 Rocket 3.0 17:10:42 10° S 17:15:01 65° E 17:19:22 10° NNE
BlueWalker 3 1.9 17:13:01 10° NW 17:16:35 60° NE 17:19:29 14° ESE
Cosmos 1340 Rocket 2.6 17:14:23 10° S 17:18:03 82° W 17:21:43 10° N
Meteor 1-22 Rocket 4.3 17:12:58 10° S 17:18:29 89° W 17:24:17 10° N
Terra 3.5 17:17:03 12° E 17:19:02 15° ENE 17:21:38 10° NNE
Atlas Centaur 2 3.2 17:14:18 10° WSW 17:19:28 38° SSW 17:25:12 12° SE
Cosmos 1898 Rocket 3.4 17:16:09 10° S 17:21:22 72° ESE 17:26:35 10° NNE
Resurs 01 Rocket 2.7 17:22:31 10° S 17:26:44 47° W 17:30:58 10° NNW
PSLV R/B 4.4 17:23:03 10° S 17:26:56 48° W 17:30:53 10° NNW
CZ-4 R/B 2.2 17:25:08 16° ESE 17:27:22 28° ENE 17:30:37 10° NNE
Cosmos 2333 4.4 17:23:32 10° SSW 17:29:07 74° WNW 17:34:43 10° NNE
Cosmos 372 Rocket 4.5 17:27:26 10° SSW 17:32:35 64° WNW 17:37:47 10° NNE
CENTAUR R/B 3.7 17:24:05 10° NW 17:32:52 72° WSW 17:42:22 10° SSE
SL-08 R/B 4.5 17:30:35 10° NE 17:34:27 23° E 17:36:20 19° SE
Cosmos 2219 Rocket 2.2 17:29:36 10° SSW 17:35:10 88° WNW 17:40:47 10° NNE
Cosmos 2074 Rocket 4.0 17:29:01 10° S 17:35:13 88° E 17:41:30 10° N
Meteor 1-24 Rocket 3.7 17:29:50 10° N 17:35:19 68° E 17:40:57 10° SSE
Cosmos 1538 Rocket 4.0 17:32:17 10° N 17:37:22 60° ENE 17:41:35 15° SSE
Cosmos 1844 4.2 17:32:15 10° NNW 17:37:59 65° WSW 17:43:41 10° S
CZ-3C R/B 3.4 17:30:41 10° WSW 17:38:12 18° SW 17:41:24 10° S
SPOT 5 2.8 17:33:43 10° SSE 17:38:32 65° ENE 17:43:08 10° N
Cosmos 1937 Rocket 3.4 17:37:44 10° SSW 17:43:01 83° ESE 17:48:19 10° NNE
Tiangong -2.1 17:41:14 10° WNW 17:44:22 67° SSW 17:45:27 36° SE
CZ-4B R/B 3.6 17:43:01 22° SSE 17:45:04 58° ENE 17:48:39 10° N
BREEZE-M DEB (TANK) 4.2 17:43:27 10° WNW 17:47:04 28° SW 17:48:31 17° S
Meteor 1-31 Rocket 2.5 17:46:52 25° SSE 17:48:41 62° ENE 17:52:10 10° N
COSMOS 2428 3.1 17:47:01 10° S 17:52:13 38° ESE 17:57:27 10° NE
NOSS 2-2 (E) 4.2 17:48:20 10° NW 17:52:38 65° WSW 17:57:42 14° SSE
IRAS Rocket 4.1 17:48:12 10° SSE 17:53:40 83° ENE 17:59:11 10° NNW
PAYLOAD B 4.5 17:51:41 24° SE 17:54:45 48° ENE 18:00:01 10° N
CZ-4B R/B 3.8 17:53:16 26° ESE 17:55:37 39° ENE 18:00:46 10° N
CZ-4B DEB 4.3 17:52:39 21° SE 17:56:11 58° ENE 18:01:32 10° N
CSL-04 Rocket 3.7 17:51:12 10° SSE 17:56:42 90° WNW 18:02:16 10° NNW
Cosmos 1610 Rocket 4.4 17:53:53 10° S 18:00:13 83° E 18:06:30 10° N
Cosmos 2278 Rocket 4.1 18:02:44 10° NNE 18:05:17 13° NE 18:05:59 13° ENE
NOSS 3-2 (A) 4.2 18:05:34 10° NNW 18:13:25 87° WSW 18:19:22 25° SSE
SKYMED 3 4.1 18:09:48 10° NNE 18:13:41 72° ESE 18:14:26 54° SSE
Spot 2 Rocket 4.4 18:13:52 29° ENE 18:13:52 29° ENE 18:18:10 10° N
ERS-1 Rocket 2.8 18:17:55 42° SSE 18:19:34 74° ENE 18:24:34 10° N
Meteor 2-5 Rocket 4.4 18:14:40 10° NNW 18:20:01 52° W 18:25:24 10° S
Cosmos 1703 Rocket 3.4 18:16:11 10° N 18:20:30 86° W 18:21:39 48° S
Cosmos 2218 Rocket 4.1 18:21:24 41° SE 18:22:49 49° E 18:28:41 10° NNE
Nadezhda 3 Rocket 4.3 18:17:08 10° NNW 18:23:14 65° W 18:29:00 11° S
Lacrosse 5 rocket 3.3 18:21:13 10° W 18:23:46 21° NW 18:26:19 10° NNE
Cosmos 1933 Rocket 3.6 18:21:40 21° SSW 18:24:30 74° W 18:28:54 10° N
BREEZE M DEB (TANK) 4.1 18:27:48 10° WNW 18:30:33 17° WSW 18:31:00 17° SW
Cosmos 1943 Rocket 3.4 18:26:59 10° N 18:31:28 25° NE 18:31:28 25° NE
In-Cosmos 22 Rocket 4.0 18:31:51 10° N 18:37:08 64° E 18:37:17 64° E
Cosmos 1821 Rocket 4.3 18:37:50 45° E 18:37:50 45° E 18:43:22 10° NNE
Okean-O 3.6 18:43:16 37° NNE 18:43:16 37° NNE 18:46:12 10° N
Cosmos 494 Rocket 4.1 18:41:54 10° N 18:46:32 58° NE 18:46:32 58° NE
BREEZE-M DEB (TANK) 4.4 18:37:56 10° NW 18:52:40 90° NW 18:53:30 68° SE
ADEOS 3.8 18:52:04 53° SSW 18:53:00 63° WSW 18:58:10 10° NNW
Cosmos 1869 Rocket 4.4 18:53:53 43° WSW 18:54:31 47° W 18:58:45 10° N
Terra 2.4 18:55:40 48° WSW 18:56:06 50° W 19:00:40 10° NNW
CZ-4 R/B 3.8 19:00:06 14° WSW 19:01:22 16° W 19:03:48 10° NW
Cosmos 2237 Rocket 3.7 19:05:49 25° NE 19:05:49 25° NE 19:08:08 10° NNE
Cosmos 2341 Rocket 4.3 19:01:56 30° SSW 19:05:03 62° W 19:11:16 10° N
Okean O Rocket 2.7 19:06:43 40° NNW 19:06:43 40° NNW 19:09:34 10° NNW
Atlas Centaur 2 4.2 19:03:01 10° WSW 19:07:06 20° SSW 19:07:06 20° SSW
Meteor 1-21 Rocket 4.5 19:13:48 10° NNW 19:18:43 65° NW 19:18:43 65° NW
Cosmos 1680 Rocket 4.4 19:18:00 10° NNW 19:22:22 42° W 19:22:22 42° W
USA 238 DEB 4.4 19:38:09 10° NNW 19:44:50 51° NE 19:44:50 51° NE
USA 238 4.4 19:38:19 10° NNW 19:45:00 51° NE 19:45:00 51° NE
Cosmos 2278 Rocket 3.4 19:44:23 10° NNW 19:47:49 38° NNW 19:47:49 38° NNW
Cosmos 1943 Rocket 4.0 20:10:12 10° NW 20:12:58 26° NW 20:12:58 26° NW
ACS3 Solar Sail 3.4 23:37:49 10° N 23:40:25 27° N 23:40:25 27° N
CZ-3 Stage 3 4.5 23:47:54 31° ESE 23:47:54 31° ESE 23:59:45 10° E
